Location: Poznań
(52.4062°N, 16.9234°E)
Time: 21:59:56
(UTC+01:00)

ISS - Pass Details

Date: 31 January 2019
Orbit: 403 x 411 km, 51.6° (Epoch: 18 February)

Event Time Altitude Azimuth Distance (km) Brightness Sun altitude
Rises 18:10:37 0° 264° (W) 2,334 2.0 -14.4°
Reaches altitude 10° 18:12:42 10° 264° (W) 1,475 0.4 -14.7°
Maximum altitude 18:16:01 79° 177° (S) 423 -3.8 -15.2°
Enters shadow 18:17:15 36° 96° (E) 677 -3.2 -15.4°
